Regional Weather Roundup
Issued by NWS Grand Forks, ND

Home | Current Version | Previous Version | Text Only | Print | Product List | Glossary Off
Versions: 1 2 3 4 5 6 7 8 9 10 11 12 13 14 15 16 17 18 19 20 21 22 23 24 25 26 27 28 29 30 31 32 33 34 35 36 37 38 39 40 41 42 43 44 45 46 47 48 49 50

000
ASUS43 KFGF 190910
RWRFGF
PRAIRIE TO PINES  WEATHER ROUNDUP
NATIONAL WEATHER SERVICE EASTERN NORTH DAKOTA/GRAND FORKS ND
400 AM CDT SAT AUG 19 2017

 **SATELLITE DATA USED TO AUGMENT SKY COVER AT AUTOMATED STATIONS**
 *****  WEATHER ACROSS EASTERN NORTH DAKOTA  *****

CITY           SKY/WX    TMP DP  RH WIND       PRES   REMARKS
GRAND FORKS    FAIR      57  55  93 SW8       29.83S
GRAND FRKS AFB FAIR      57  54  90 SW7       29.84S
DEVILS LAKE    FAIR      66  55  67 SW9       29.86S
FARGO          FAIR      60  58  92 S6        29.87S
WAHPETON ARPT  FAIR      54  52  94 S3        29.90S
$$

 ***** WEATHER ACROSS CENTRAL AND WESTERN NORTH DAKOTA  *****

CITY           SKY/WX    TMP DP  RH WIND       PRES   REMARKS
BISMARCK       FAIR      59  55  87 E6        29.89F
MINOT          FAIR      69  53  56 S12       29.81F
JAMESTOWN      FAIR      57  54  89 SW6       29.88S
MINOT AFB        N/A     64  53  67 S10       29.79F
GARRISON         N/A     59  55  87 CALM      29.85F
WILLISTON      FAIR      66  52  60 SW3       29.79F
DICKINSON      FAIR      59  52  77 S9        29.84F
HETTINGER      FAIR      62  50  64 SE13      29.89F
$$

 *****  OTHER AIRPORT OBSERVATIONS IN OUR AREA  *****

CITY           SKY/WX    TMP DP  RH WIND       PRES   REMARKS
WALHALLA       FAIR      59  59 100 CALM      29.81S
GRAFTON AIRPOR FAIR      55  55 100 SW6       29.84S
VALLEY CITY AR   N/A     55  55 100 S6        29.90S
CANDO          FAIR      52  52 100 SW6       29.86R
CAVALIER APRT  FAIR      57  54  88 SW3       29.81S
GWINNER        SUNNY     55  54  94 CALM      29.90S
SHEYENNE NWR     N/A     55  55 100 SW6       29.95S
ROLLA          CLOUDY    54  52  94 SW7       29.84S
 ***** THE ABOVE OBSERVATIONS ARE NON NWS ARE NOT QUALITY
       CONTROLLED AND MAY MIS-REPORT RAIN FOR SNOW...
$$

  *****  WEATHER ACROSS NORTHERN MINNESOTA  *****

CITY           SKY/WX    TMP DP  RH WIND       PRES   REMARKS
FLAG ISLAND    FAIR      66  54  63 CALM      29.80S HAZE
WARROAD        FAIR      55  52  88 SW3       29.83S
ROSEAU         FAIR      55  50  82 CALM      29.83S
HALLOCK        FAIR      54  52  94 SE7       29.82S
THF RVR FALLS  FAIR      56  55  97 SW5       29.87R
BAUDETTE       FAIR      54  53  97 S3        29.83S
WASKISH        FAIR      57  55  94 CALM      29.85F FOG
CROOKSTON      FAIR      54  54 100 SE6       29.86R
STEPHEN NDAWN    N/A     52  50  93 SE3         N/A
GREENBUSH NDAW   N/A     55  52  88 SE1         N/A
$$
  *****  WEATHER ACROSS CENTRAL AND WEST MINNESOTA  *****

CITY           SKY/WX    TMP DP  RH WIND       PRES   REMARKS
FOSSTON        FAIR      54  52  94 S3        29.88S
BEMIDJI        FAIR      57  56  95 SW5       29.88R
PARK RAPIDS    FAIR      56  54  93 CALM      29.89S
ELBOW LAKE     FAIR      56  56 100 S5        29.91S
WADENA         FAIR      57  57 100 W5        29.90S
DETROIT LAKES  FAIR      61  59  94 CALM      29.90S
MOORHEAD       FAIR      57  57 100 CALM      29.89S
FERGUS FALLS   FAIR      59  59 100 S3        29.90S
MORRIS MN      FAIR      55  55 100 S3        29.90S FOG
STAPLES        FAIR      57  55  94 CALM      29.90S
$$
  *****  WEATHER ELSEWHERE ACROSS MINNESOTA  *****

CITY           SKY/WX    TMP DP  RH WIND       PRES   REMARKS
DULUTH         FAIR      57  57 100 W8        29.87S
INTRNTL FALLS  FAIR      55  53  93 CALM      29.83S
ELY            FAIR      55  55 100 CALM      29.85R
CLOQUET        FAIR      59  55  88 W7        29.88S
WHEATON        FAIR      55  54  94 SW3       29.92S
BRAINERD       FAIR      55  55 100 S5        29.89F FOG
HIBBING        FAIR      48  48 100 SW3       29.86S FOG
ALEXANDRIA     FAIR      58  57  97 SW6       29.92F
SAINT CLOUD    FOG       53  53 100 CALM      29.91S VSB 1/2
MINNEAPOLIS    FAIR      62  58  86 SW3       29.92S FOG
$$

  *****  WEATHER ACROSS SOUTH DAKOTA  *****

CITY           SKY/WX    TMP DP  RH WIND       PRES   REMARKS
SIOUX FALLS    FAIR      56  56 100 W3        29.94S
BROOKINGS      FAIR      54  54 100 CALM      29.94S
WATERTOWN      FOG       55  55 100 CALM      29.93S VSB 1/4
HURON          FAIR      58  56  93 SE5       29.94S
SISSETON         N/A     58  56  93 SW7       29.89F
ABERDEEN       FAIR      53  53 100 S5        29.92S
MITCHELL       FAIR      55  54  96 CALM      29.95F FOG
PIERRE         FAIR      62  55  77 S9        29.92F
MOBRIDGE       FAIR      63  59  87 S10       29.90F
RAPID CITY     FAIR      58  48  69 SE10      29.93F
$$

  *****  SOME WEATHER IN NEARBY STATES *****

CITY           SKY/WX    TMP DP  RH WIND       PRES   REMARKS
GLASGOW MT     FAIR      61  41  47 SE12      29.73F
GREAT FALLS MT FAIR      73  27  18 SW14      29.90R
CHEYENNE WY    FAIR      59  43  55 SW6       30.15S
SCOTTSBLUFF NE FAIR      63  50  62 E8        30.00F
OMAHA NE       FAIR      63  59  87 N7        29.94S
DES MOINES IA  FAIR      67  62  84 SE8       29.91S
DAVENPORT IA   FAIR      61  59  93 NW7       29.95R
CHICAGO IL     FAIR      66  59  78 N7        29.90S
EAU CLAIRE WI  FAIR      59  58  96 SW3       29.91S FOG
LA CROSSE WI   MOCLDY    62  60  93 S3        29.93R FOG
$$

  *****  SOME NATIONAL WEATHER *****

CITY           SKY/WX    TMP DP  RH WIND       PRES   REMARKS
LA GUARDIA NY  MOCLDY    76  73  91 W9        29.79R
RALEIGH NC     FAIR      74  73  97 CALM      29.91F FOG
ATLANTA GA     FAIR      71  65  81 W6        29.99S
NEW ORLEANS LA FAIR      81  78  91 W7        29.99R
OKLAHOMA CITY  FAIR      73  72  96 S6        29.98F
ALBUQUERQUE NM CLOUDY    75  47  36 E3        30.19S
SALT LAKE CITY FAIR      70  36  28 N6        30.06S
LOS ANGELES CA MOCLDY    66  62  87 W6        29.95F
BOISE ID       FAIR      68  30  24 SW6       29.98S
SEATTLE WA     MOCLDY    63  53  70 NE13      30.15S
$$

*** WEATHER ACROSS MANITOBA...SASKATCHEWAN AND ONTARIO ***
                ***ONTARIO***

CITY           SKY/WX    TMP DP  RH WIND       PRES   REMARKS
GERALDTON      FOG       50  50 100 SW2       29.76R VSB 1/2
THUNDER BAY    PTCLDY    55  55 100 SW5       29.78R
SIOUX LOOKOUT  CLEAR     52  50  93 CALM      29.78S
TORONTO        PTCLDY    64  59  82 W10       29.78S
BIG TROUT LK   CLOUDY    61  55  82 SW6       29.65S
PICKLE LAKE    NOT AVBL
DRYDEN         CLEAR     57  55  94 W7        29.80R
KENORA         CLEAR     63  55  77 SW3       29.82R
$$
                *** MANITOBA***

CITY           SKY/WX    TMP DP  RH WIND       PRES   REMARKS
BRANDON        CLEAR     48  46  93 NW5       29.79S
DAUPHIN        CLEAR     57  52  82 SW5       29.74S
ISLAND LAKE    NOT AVBL
PILOT MOUND      N/A     52  48  87 S7          N/A
THE PAS        CLEAR     59  54  82 CALM      29.65F
THOMPSON       CLOUDY    59  57  94 NE3       29.64F
WINNIPEG       NOT AVBL
LYNN LAKE      CLOUDY    55  54  94 MISG      29.62F
CHURCHILL      CLOUDY    52  50  93 N12       29.64R
GILLAM         PTCLDY    57  55  94 N8        29.64R
$$
                ***SASKATCHEWAN***

CITY           SKY/WX    TMP DP  RH WIND       PRES   REMARKS
ESTEVAN        PTCLDY    66  54  63 S14G21    29.75F
KINDERSLEY     PTCLDY    57  46  67 N29G44    29.71R
LLOYDMINSTER   TSTM      54  50  87 NW12G20   29.77F
PRINCE ALBERT  PTCLDY    54  50  87 NE6       29.63F
REGINA         NOT AVBL
YORKTON        PTCLDY    57  50  77 S8        29.71F
N. BATTLEFORD  CLEAR     59  50  72 NW29G41   29.68S
LA RONGE       MOCLDY    61  55  82 S3        29.62F
SASKATOON      PTCLDY    59  48  67 E7        29.59F
SWIFT CURRENT  CLEAR     64  41  42 SW15      29.67S
$$
NOTE: THESE ARE AUTOMATED STATIONS WITH LIMITED QUALITY CONTROL
      "FAIR" INDICATES FEW OR NO CLOUDS BELOW 12,000 FEET WITH NO
      SIGNIFICANT WEATHER AND/OR OBSTRUCTIONS TO VISIBILITY.
      SKY/WX - SKY CONDITION AND SIGNIFICANT WEATHER.
      TMP - AIR TEMPERATURE.    DP   - DEWPOINT TEMPERATURE.
      RH  - RELATIVE HUMIDITY.  PRES - PRESSURE.
      HX  - HEAT INDEX.         WCI  - WIND CHILL INDEX.
$




USA.gov is the U.S. government's official web portal to all federal, state and local government web resources and services.